Regional Weather Roundup
Issued by NWS

Home | Current Version | Previous Version | Graphics & Text | Print | Product List | Glossary On
Versions: 1 2 3 4 5 6 7 8 9 10 11 12 13 14 15 16 17 18 19 20 21 22 23 24 25 26 27 28 29 30 31 32 33 34 35 36 37 38 39 40 41 42 43 44 45 46 47 48 49 50
000
ASUS43 KBIS 281610
RWRND

NORTH DAKOTA REGIONAL WEATHER ROUNDUP
NATIONAL WEATHER SERVICE BISMARCK ND
1100 AM CDT MON JUL 28 2014

NOTE: "FAIR" INDICATES FEW OR NO CLOUDS BELOW 12,000 FEET WITH NO
SIGNIFICANT WEATHER AND/OR OBSTRUCTIONS TO VISIBILITY.


NDZ001>003-009>011-017-281700-
NORTHWEST NORTH DAKOTA

CITY           SKY/WX    TMP DP  RH WIND       PRES   REMARKS
WILLISTON      SUNNY     71  54  54 SW5       30.31F
MINOT          SUNNY     68  51  54 VRB3      30.32F
MINOT AFB      SUNNY     69  54  60 W5        30.31F
$$

NDZ018>021-031>035-040>046-281700-
SOUTHWEST NORTH DAKOTA

CITY           SKY/WX    TMP DP  RH WIND       PRES   REMARKS
BISMARCK       SUNNY     68  51  54 E5        30.34S
DICKINSON      SUNNY     69  54  58 VRB6      30.33S
GARRISON         N/A     67  53  61 CALM      30.33F
HETTINGER ARPT SUNNY     67  52  58 E6        30.35F
$$

NDZ004>008-012>016-024-026-027-054-281700-
NORTHEAST NORTH DAKOTA

CITY           SKY/WX    TMP DP  RH WIND       PRES   REMARKS
GRAND FORKS    MOSUNNY   69  57  65 N6        30.28S
GRND FRKS AFB  SUNNY     69  58  66 N8        30.29S
DEVILS LAKE    SUNNY     66  52  59 N7        30.30F
$$

NDZ022-023-025-028>030-036>039-047>053-281700-
SOUTHEAST NORTH DAKOTA

CITY           SKY/WX    TMP DP  RH WIND       PRES   REMARKS
FARGO          CLOUDY    68  57  68 N9        30.27F
JAMESTOWN      SUNNY     67  53  61 NW10      30.31F
$$



USA.gov is the U.S. government's official web portal to all federal, state and local government web resources and services.